Location: Heisler
(52.6701°N, 112.2239°W)
Time: 11:52:59
(UTC+00:00)

N. Korean satellite - Pass Details

Date: 06 December 2021
Orbit: 447 x 491 km, 97.3° (Epoch: 21 January)

Event Time Altitude Azimuth Distance (km) Brightness Sun altitude
Rises 11:41:52 0° 30° (NNE) 2,469 10.6 -32.5°
Reaches altitude 10° 11:44:50 10° 59° (ENE) 1,585 9.9 -32.1°
Maximum altitude 11:46:30 13° 89° (E) 1,403 9.7 -31.8°
Drops below altitude 10° 11:48:09 10° 118° (ESE) 1,576 9.8 -31.6°
Sets 11:51:05 0° 148° (SSE) 2,442 10.5 -31.1°
